Madison, MN

12:35 AM CST on December 06, 2019 (GMT -0600)
Madison-Lac Qui Parle County

Weather History for KDXX - October, 2019

Change the Weather History Date:

Friday, October 25, 2019

  Actual Average (KAQP) Record (KAQP)
Temperature  
Mean Temperature 47 °F -  
Max Temperature 62 °F 50 °F 73 °F (2000)
Min Temperature 32 °F 32 °F 21 °F (2005)
Degree Days  
Heating Degree Days 18    
Moisture  
Dew Point 31 °F    
Average Humidity 60    
Maximum Humidity 87    
Minimum Humidity 26    
Precipitation  
Precipitation 0.00 in - - ()
Sea Level Pressure  
Sea Level Pressure 30.10 in    
Wind  
Wind Speed 7 mph (SSW)    
Max Wind Speed 13 mph    
Max Gust Speed 20 mph    
Visibility 10 miles    
Events      
Averages and records for this station are not official NWS values.
T = Trace of Precipitation, MM = Missing Value Source: NWS Daily Summary

Daily Weather History Graph

Daily Weather History Graph

Search for Another Location

Airport or City:

Astronomy

Oct. 25, 2019 Rise Set
Actual Time 7:53 AM CDT 6:23 PM CDT
Civil Twilight 7:23 AM CDT 6:53 PM CDT
Nautical Twilight 6:48 AM CDT 7:27 PM CDT
Astronomical Twilight 6:14 AM CDT 8:01 PM CDT
Moon 4:24 AM CDT (10/25) 5:36 PM CDT (10/25)
Length of Visible Light 11h 30m
Length of Day
10h 30m
Waning Crescent, 9% of the Moon is Illuminated
Oct 25
Waning Crescent
Oct 27
New
Nov 4
First Quarter
Nov 12
Full
Nov 19
Last Quarter

Hourly Weather History & Observations

Time (CDT) Temp. Windchill Dew Point Humidity Pressure Visibility Wind Dir Wind Speed Gust Speed Precip Events Conditions
12:19 AM 32.0 °F 27.5 °F 28.4 °F 87% 30.28 in 10.0 mi South 4.6 mph - N/A   Scattered Clouds
12:36 AM 33.8 °F 30.8 °F 28.4 °F 81% 30.28 in 10.0 mi South 3.5 mph - N/A   Scattered Clouds
12:56 AM 33.8 °F 30.8 °F 28.4 °F 81% 30.28 in 10.0 mi South 3.5 mph - N/A   Clear
1:15 AM 33.8 °F 29.6 °F 28.4 °F 81% 30.27 in 10.0 mi South 4.6 mph - N/A   Mostly Cloudy
1:35 AM 33.8 °F 30.8 °F 30.2 °F 87% 30.26 in 3.0 mi South 3.5 mph - N/A   Overcast
1:39 AM 33.8 °F - 30.2 °F 87% 30.26 in 2.5 mi Calm Calm - N/A   Overcast
1:58 AM 37.4 °F 32.8 °F 32.0 °F 81% 30.26 in 10.0 mi South 5.8 mph - N/A   Overcast
2:15 AM 37.4 °F 32.8 °F 32.0 °F 81% 30.26 in 10.0 mi South 5.8 mph - N/A   Overcast
2:35 AM 35.6 °F 31.7 °F 32.0 °F 87% 30.25 in 10.0 mi South 4.6 mph - N/A   Overcast
2:36 AM 35.6 °F 31.7 °F 32.0 °F 87% 30.25 in 10.0 mi South 4.6 mph - N/A   Overcast
2:55 AM 35.6 °F 32.8 °F 30.2 °F 81% 30.25 in 10.0 mi SW 3.5 mph - N/A   Scattered Clouds
3:18 AM 37.4 °F 33.8 °F 30.2 °F 75% 30.25 in 10.0 mi SW 4.6 mph - N/A   Scattered Clouds
3:36 AM 37.4 °F 32.8 °F 32.0 °F 81% 30.24 in 10.0 mi SW 5.8 mph - N/A   Mostly Cloudy
3:55 AM 39.2 °F 33.6 °F 32.0 °F 75% 30.23 in 10.0 mi SW 8.1 mph - N/A   Scattered Clouds
4:15 AM 37.4 °F 32.8 °F 30.2 °F 75% 30.23 in 10.0 mi SW 5.8 mph - N/A   Clear
4:16 AM 37.4 °F 32.8 °F 30.2 °F 75% 30.23 in 10.0 mi SW 5.8 mph - N/A   Clear
4:35 AM 35.6 °F 30.7 °F 30.2 °F 81% 30.23 in 10.0 mi SW 5.8 mph - N/A   Clear
4:40 AM 35.6 °F 30.7 °F 30.2 °F 81% 30.23 in 10.0 mi SW 5.8 mph - N/A   Clear
4:57 AM 37.4 °F 32.8 °F 30.2 °F 75% 30.22 in 10.0 mi SW 5.8 mph - N/A   Clear
5:15 AM 37.4 °F 32.1 °F 30.2 °F 75% 30.22 in 10.0 mi SSW 6.9 mph - N/A   Clear
5:35 AM 37.4 °F 33.8 °F 30.2 °F 75% 30.21 in 10.0 mi SSW 4.6 mph - N/A   Clear
5:55 AM 37.4 °F 32.8 °F 30.2 °F 75% 30.22 in 10.0 mi SSW 5.8 mph - N/A   Clear
5:56 AM 37.4 °F 32.1 °F 30.2 °F 75% 30.22 in 10.0 mi SSW 6.9 mph - N/A   Clear
6:19 AM 35.6 °F 29.9 °F 30.2 °F 81% 30.21 in 10.0 mi SSW 6.9 mph - N/A   Clear
6:37 AM 35.6 °F 30.7 °F 30.2 °F 81% 30.21 in 10.0 mi South 5.8 mph - N/A   Clear
6:56 AM 35.6 °F 29.9 °F 30.2 °F 81% 30.21 in 10.0 mi SSW 6.9 mph - N/A   Clear
7:15 AM 33.8 °F 27.7 °F 30.2 °F 87% 30.20 in 10.0 mi South 6.9 mph - N/A   Clear
7:16 AM 33.8 °F 28.6 °F 30.2 °F 87% 30.20 in 10.0 mi South 5.8 mph - N/A   Clear
7:35 AM 33.8 °F 28.6 °F 30.2 °F 87% 30.20 in 10.0 mi South 5.8 mph - N/A   Clear
7:39 AM 33.8 °F 27.7 °F 30.2 °F 87% 30.19 in 10.0 mi South 6.9 mph - N/A   Clear
7:57 AM 33.8 °F 27.7 °F 30.2 °F 87% 30.19 in 10.0 mi South 6.9 mph - N/A   Clear
8:16 AM 33.8 °F 27.7 °F 30.2 °F 87% 30.19 in 10.0 mi South 6.9 mph - N/A   Clear
8:35 AM 33.8 °F 28.6 °F 30.2 °F 87% 30.18 in 10.0 mi South 5.8 mph - N/A   Clear
8:55 AM 37.4 °F 32.8 °F 30.2 °F 75% 30.18 in 10.0 mi South 5.8 mph - N/A   Clear
8:56 AM 37.4 °F 32.8 °F 30.2 °F 75% 30.18 in 10.0 mi South 5.8 mph - N/A   Clear
9:18 AM 39.2 °F 35.0 °F 32.0 °F 75% 30.17 in 10.0 mi SSW 5.8 mph - N/A   Clear
9:55 AM 44.6 °F 39.7 °F 33.8 °F 66% 30.17 in 10.0 mi SW 9.2 mph - N/A   Clear
9:56 AM 44.6 °F 39.7 °F 33.8 °F 66% 30.17 in 10.0 mi SW 9.2 mph - N/A   Clear
10:15 AM 46.4 °F 41.1 °F 32.0 °F 57% 30.16 in 10.0 mi SW 11.5 mph - N/A   Clear
10:16 AM 46.4 °F 41.1 °F 32.0 °F 57% 30.16 in 10.0 mi SW 11.5 mph - N/A   Clear
10:35 AM 46.4 °F 41.1 °F 30.2 °F 53% 30.15 in 10.0 mi SW 11.5 mph 17.3 mph N/A   Clear
10:39 AM 46.4 °F 41.5 °F 30.2 °F 53% 30.15 in 10.0 mi SW 10.4 mph - N/A   Clear
11:15 AM 51.8 °F - 30.2 °F 44% 30.15 in 10.0 mi SSW 9.2 mph - N/A   Clear
11:35 AM 51.8 °F - 30.2 °F 44% 30.14 in 10.0 mi SSW 10.4 mph - N/A   Clear
11:36 AM 51.8 °F - 30.2 °F 44% 30.14 in 10.0 mi SSW 10.4 mph - N/A   Clear
11:55 AM 53.6 °F - 30.2 °F 41% 30.13 in 10.0 mi SW 11.5 mph - N/A   Clear
11:56 AM 53.6 °F - 30.2 °F 41% 30.13 in 10.0 mi SW 11.5 mph - N/A   Clear
12:19 PM 53.6 °F - 30.2 °F 41% 30.11 in 10.0 mi SSW 12.7 mph 16.1 mph N/A   Clear
12:36 PM 55.4 °F - 30.2 °F 38% 30.10 in 10.0 mi SSW 10.4 mph 16.1 mph N/A   Clear
12:55 PM 57.2 °F - 30.2 °F 36% 30.09 in 10.0 mi SSW 10.4 mph - N/A   Clear
1:15 PM 57.2 °F - 30.2 °F 36% 30.08 in 10.0 mi SW 10.4 mph - N/A   Clear
1:16 PM 57.2 °F - 30.2 °F 36% 30.08 in 10.0 mi SW 9.2 mph - N/A   Clear
1:35 PM 57.2 °F - 30.2 °F 36% 30.08 in 10.0 mi SSW 10.4 mph - N/A   Clear
1:57 PM 60.8 °F - 30.2 °F 31% 30.06 in 10.0 mi SSW 9.2 mph - N/A   Clear
2:15 PM 60.8 °F - 28.4 °F 29% 30.05 in 10.0 mi WSW 11.5 mph - N/A   Clear
2:35 PM 60.8 °F - 28.4 °F 29% 30.04 in 10.0 mi WSW 12.7 mph 18.4 mph N/A   Clear
2:55 PM 60.8 °F - 28.4 °F 29% 30.04 in 10.0 mi SW 10.4 mph 16.1 mph N/A   Clear
2:56 PM 60.8 °F - 28.4 °F 29% 30.04 in 10.0 mi WSW 8.1 mph 16.1 mph N/A   Clear
3:19 PM 62.6 °F - 28.4 °F 27% 30.02 in 10.0 mi WSW 12.7 mph 17.3 mph N/A   Clear
3:36 PM 62.6 °F - 26.6 °F 26% 30.02 in 10.0 mi WSW 9.2 mph - N/A   Clear
3:56 PM 62.6 °F - 28.4 °F 27% 30.01 in 10.0 mi SW 11.5 mph - N/A   Clear
4:15 PM 62.6 °F - 28.4 °F 27% 30.01 in 10.0 mi SW 11.5 mph 19.6 mph N/A   Clear
4:16 PM 62.6 °F - 28.4 °F 27% 30.01 in 10.0 mi SW 10.4 mph 19.6 mph N/A   Clear
4:35 PM 62.6 °F - 26.6 °F 26% 30.00 in 10.0 mi WSW 11.5 mph 16.1 mph N/A   Clear
4:39 PM 62.6 °F - 26.6 °F 26% 30.00 in 10.0 mi WSW 9.2 mph 16.1 mph N/A   Clear
4:58 PM 60.8 °F - 28.4 °F 29% 30.00 in 10.0 mi SW 8.1 mph - N/A   Clear
5:15 PM 60.8 °F - 28.4 °F 29% 30.00 in 10.0 mi SW 8.1 mph 16.1 mph N/A   Clear
5:35 PM 59.0 °F - 30.2 °F 34% 29.99 in 10.0 mi SSW 8.1 mph - N/A   Clear
5:36 PM 59.0 °F - 30.2 °F 34% 29.99 in 10.0 mi SSW 9.2 mph - N/A   Clear
5:55 PM 57.2 °F - 30.2 °F 36% 29.99 in 10.0 mi SSW 8.1 mph - N/A   Clear
5:56 PM 57.2 °F - 30.2 °F 36% 29.99 in 10.0 mi SSW 8.1 mph - N/A   Clear
6:18 PM 53.6 °F - 32.0 °F 44% 29.98 in 10.0 mi SSW 5.8 mph - N/A   Clear
6:37 PM 51.8 °F - 32.0 °F 47% 29.98 in 10.0 mi South 6.9 mph - N/A   Clear
7:15 PM 50.0 °F - 33.8 °F 54% 29.98 in 10.0 mi South 5.8 mph - N/A   Clear
7:16 PM 48.2 °F - 33.8 °F 58% 29.98 in 10.0 mi South 5.8 mph - N/A   Clear
7:35 PM 48.2 °F - 33.8 °F 58% 29.98 in 10.0 mi South 6.9 mph - N/A   Clear
7:57 PM 46.4 °F 43.5 °F 33.8 °F 62% 29.98 in 10.0 mi SSW 5.8 mph - N/A   Clear
8:15 PM 44.6 °F 40.7 °F 33.8 °F 66% 29.97 in 10.0 mi South 6.9 mph - N/A   Clear
8:35 PM 46.4 °F 42.9 °F 35.6 °F 66% 29.97 in 10.0 mi SSW 6.9 mph - N/A   Clear
8:55 PM 46.4 °F 42.4 °F 33.8 °F 62% 29.96 in 10.0 mi South 8.1 mph - N/A   Clear
8:56 PM 48.2 °F - 33.8 °F 58% 29.96 in 10.0 mi SSW 8.1 mph - N/A   Clear
9:19 PM 46.4 °F 42.9 °F 33.8 °F 62% 29.95 in 10.0 mi South 6.9 mph - N/A   Clear
9:36 PM 44.6 °F 41.4 °F 33.8 °F 66% 29.94 in 10.0 mi South 5.8 mph - N/A   Clear
9:56 PM 44.6 °F 40.7 °F 33.8 °F 66% 29.93 in 10.0 mi South 6.9 mph - N/A   Clear
10:15 PM 44.6 °F 40.7 °F 33.8 °F 66% 29.93 in 10.0 mi South 6.9 mph - N/A   Clear
10:35 PM 42.8 °F 38.6 °F 33.8 °F 70% 29.93 in 10.0 mi South 6.9 mph - N/A   Clear
10:39 PM 42.8 °F 38.6 °F 33.8 °F 70% 29.92 in 10.0 mi South 6.9 mph - N/A   Clear
10:58 PM 42.8 °F 37.5 °F 33.8 °F 70% 29.92 in 10.0 mi South 9.2 mph - N/A   Clear
11:15 PM 44.6 °F 39.7 °F 33.8 °F 66% 29.92 in 10.0 mi South 9.2 mph - N/A   Clear
11:35 PM 44.6 °F 40.2 °F 33.8 °F 66% 29.91 in 10.0 mi South 8.1 mph - N/A   Clear
11:36 PM 44.6 °F 40.2 °F 33.8 °F 66% 29.91 in 10.0 mi South 8.1 mph - N/A   Clear
11:55 PM 44.6 °F 40.2 °F 33.8 °F 66% 29.90 in 10.0 mi South 8.1 mph - N/A   Clear